Location: Brabourne
(51.1333°N, 1.0000°E)
Time: 05:42:28
(UTC+00:00)

NOSS 3-1 (A) - Pass Details

Date: 23 October 2021
Orbit: 721 x 1491 km, 63.4° (Epoch: 22 November)

Event Time Altitude Azimuth Distance (km) Brightness Sun altitude
Exits shadow 01:07:39 16° 94° (E) 2,928 6.1 -46.5°
Drops below altitude 10° 01:09:07 10° 99° (E) 3,387 6.5 -46.4°
Sets 01:12:24 0° 105° (ESE) 4,449 7.1 -46.1°
